Location: Griffin Ranch
(33.6186°N, 110.6622°W)
Time: 23:57:18
(UTC-07:00)

Daily predictions for brighter satellites

Satellite Brightness Start Highest point End
(mag) Time Altitude Azimuth Time Altitude Azimuth Time Altitude Azimuth
ATLAS 2A CENTAUR R/B 4.3 19:58:30 10° WSW 20:05:51 65° S 20:37:06 10° E
ATLAS 2AS CENTAUR R/B 3.5 19:58:58 10° NW 20:06:39 59° WSW 20:13:39 10° SSE
Cosmos 1934 Rocket 4.1 20:02:18 10° N 20:08:23 60° E 20:14:21 10° SSE
Cosmos 1939 Rocket 3.7 20:05:23 10° SE 20:08:58 34° ENE 20:12:38 10° N
SL-24 DEB 4.3 20:05:22 10° SSE 20:10:03 68° E 20:14:48 10° N
DELTA 2 R/B (1) 3.8 20:07:04 10° WNW 20:12:38 66° SSW 20:18:11 10° SE
Aureole 2 Rocket 3.4 20:10:38 10° N 20:14:29 39° ENE 20:18:04 10° SE
Cosmos 2082 3.6 20:09:19 10° SSW 20:14:52 73° ESE 20:20:29 10° NNE
SL-19 R/B 4.4 20:09:38 10° SSE 20:15:22 64° ENE 20:20:53 10° N
Cosmos 1605 Rocket 4.4 20:10:50 10° N 20:16:51 48° E 20:22:55 10° SSE
Cosmos 2084 4.5 20:17:00 10° SSE 20:20:11 22° ESE 20:23:15 10° ENE
Meteor 1-29 3.4 20:17:10 10° NNE 20:20:25 40° E 20:23:41 10° S
Cosmos 2297 Rocket 2.2 20:16:48 10° SSW 20:22:26 80° ESE 20:28:06 10° NNE
Cosmos 1842 Rocket 4.0 20:18:59 10° N 20:23:11 43° E 20:27:19 10° SSE
OAO 3 Rocket 3.7 20:18:56 10° W 20:23:23 45° SSW 20:27:23 13° SE
Helios 1A 3.2 20:19:25 10° SSE 20:23:26 52° ENE 20:27:27 10° N
Cosmos 1340 Rocket 3.5 20:19:51 10° SSE 20:23:28 34° E 20:27:07 10° NNE
Envisat 3.0 20:20:32 10° SSE 20:25:35 79° ENE 20:30:41 10° N
Cosmos 1727 Rocket 4.1 20:23:58 10° S 20:30:07 61° E 20:36:21 10° NNE
Helios 1B rocket 2.4 20:26:06 10° NNE 20:30:16 79° ESE 20:34:23 10° S
USA 32 4.3 20:28:10 10° SSE 20:33:12 50° E 20:38:15 10° NNE
Meteor 2-5 Rocket 4.5 20:28:03 10° SSW 20:33:47 58° W 20:39:27 10° N
Cosmos 1140 Rocket 3.4 20:34:15 10° SSW 20:39:26 87° ESE 20:44:36 10° NNE
Lacrosse 4 Rocket 3.3 20:39:24 10° SW 20:43:14 34° WNW 20:47:11 10° N
Tiangong 1 3.0 20:41:50 10° W 20:44:18 27° NNW 20:46:45 10° NE
Cosmos 1980 3.7 20:38:42 10° NNW 20:44:25 89° ENE 20:49:23 14° SSE
Cosmos 1867 3.9 20:40:22 10° S 20:45:26 42° ESE 20:50:32 10° NE
ATLAS 5 CENTAUR R/B 1.6 20:42:03 10° SSW 20:46:33 65° ESE 20:51:22 10° NE
Atlas Centaur 2 1.2 20:47:06 10° WSW 20:50:35 50° S 20:52:23 25° ESE
USA 186 4.1 20:50:04 10° SW 20:51:22 13° W 20:52:37 10° WNW
YAOGAN 6 2.5 20:48:47 18° SSE 20:51:22 79° E 20:55:02 10° N
Palapa 6 Rocket 4.4 20:48:13 10° SW 20:51:44 20° S 20:52:46 18° SSE
Cosmos 2237 Rocket 2.2 20:49:26 10° NNW 20:55:04 80° WSW 20:59:35 16° SSE
Cosmos 1076 Rocket 4.1 20:53:12 21° SSE 20:55:36 39° E 20:59:41 10° NNE
Okean 3 Rocket 3.6 20:54:22 14° S 20:58:14 62° E 21:02:41 10° NNE
SL-8 R/B 3.6 20:58:47 10° NW 21:03:34 85° SW 21:06:06 28° SE
Cosmos 1356 Rocket 3.8 21:01:47 25° SSE 21:03:49 45° E 21:07:54 10° NNE
Cosmos 2227 Rocket 4.0 21:00:46 10° SW 21:05:47 33° WNW 21:10:51 10° N
Cosmos 1908 4.0 21:02:38 10° NNE 21:06:13 35° E 21:07:09 30° ESE
Cosmos 1674 2.8 21:04:38 29° SSE 21:06:15 52° E 21:09:55 10° NNE
Cosmos 1850 Rocket 3.9 21:02:03 10° SSW 21:07:13 89° ESE 21:12:26 10° NNE
Cosmos 2221 2.6 21:05:54 10° N 21:10:16 62° E 21:12:14 31° SSE
KORONAS-FOTON 4.2 21:13:00 37° ESE 21:13:38 40° E 21:17:13 10° NNE
H-2A R/B 3.1 21:12:35 24° ESE 21:14:34 31° ENE 21:19:16 10° N
OAO 1 Rocket 4.3 21:09:54 10° WSW 21:15:16 77° SSE 21:20:01 13° E
SL-16 R/B 2.3 21:12:13 10° NNW 21:17:51 64° ENE 21:20:32 31° SE
Cosmos 1766 Rocket 3.7 21:18:59 38° SE 21:20:10 49° E 21:24:21 10° NNE
USA 245 3.5 21:20:18 38° ENE 21:20:21 38° ENE 21:23:42 10° N
SPOT 5 3.2 21:19:00 33° SE 21:20:44 50° ENE 21:25:31 10° N
ARGOS 3.3 21:20:37 31° SE 21:23:08 61° ENE 21:28:29 10° N
ERS-1 Rocket 3.1 21:21:41 25° S 21:24:40 75° WSW 21:29:43 10° NNW
Cosmos 1818 4.0 21:20:31 10° NNW 21:25:49 50° ENE 21:27:52 33° ESE
Lacrosse 5 4.1 21:23:29 10° N 21:26:32 16° NE 21:29:34 10° ENE
MetOp-A 4.1 21:24:40 29° SSE 21:27:30 89° ENE 21:32:53 10° NNW
USA 234 3.8 21:25:13 10° NE 21:31:39 62° NW 21:38:04 10° WSW
RESURS DK-1 4.2 21:33:19 10° NNE 21:36:12 18° ENE 21:36:33 18° ENE
Cosmos 2333 Rocket 4.2 21:32:16 10° NW 21:36:24 21° W 21:40:31 10° SSW
Cosmos 1743 Rocket 4.5 21:37:14 31° ENE 21:37:14 31° ENE 21:40:40 10° NNE
H-2A R/B 4.0 21:37:37 17° ENE 21:37:40 17° ENE 21:40:23 10° NNE
Cosmos 2061 Rocket 4.0 21:36:36 10° N 21:43:01 85° E 21:45:59 35° S
SEDSat Delta rocket 4.3 21:39:50 10° WSW 21:42:37 23° SW 21:42:37 23° SW
Sakura Rocket 4.0 21:36:04 10° WSW 21:43:18 52° S 21:44:38 43° SE
Delta 2 Rocket 4.4 21:39:11 10° SW 21:44:27 44° SSE 21:44:27 44° SSE
Cosmos 2100 Rocket 4.1 21:38:38 10° N 21:44:57 78° W 21:48:19 30° S
Cosmos 2227 4.1 21:42:48 20° SSW 21:46:54 88° ESE 21:52:38 10° NNE
Cosmos 1459 Rocket 4.0 21:41:16 10° N 21:47:33 79° W 21:50:34 33° S
DMSP B5D2-2 4.1 21:42:25 10° NNE 21:47:34 56° E 21:48:24 50° SE
Milstar 3 Cent rocket 4.1 21:43:42 10° W 21:51:47 55° S 22:00:08 29° SE
Cosmos 2123 Rocket 3.9 21:50:05 41° SSE 21:52:20 71° E 21:58:29 10° N
SL-14 R/B 3.6 21:54:42 53° NE 21:54:42 53° NE 21:58:02 10° NNE
Landsat 7 4.0 21:55:27 52° E 21:55:50 54° ENE 22:00:29 10° N
Cosmos 1328 4.1 21:57:53 57° NE 21:57:53 57° NE 22:01:20 10° NNE
EO 1 Delta rocket 3.8 21:58:39 62° SSE 21:59:29 86° E 22:04:06 10° N
Cosmos 2173 Rocket 4.3 21:53:30 10° NNW 21:59:35 64° W 22:02:31 32° SSW
NOSS 3-4 (C) 4.5 21:53:59 10° NW 22:00:49 47° WSW 22:04:16 29° SSW
IGS 5A 4.4 22:03:14 36° NE 22:03:14 36° NE 22:06:32 10° N
Cosmos 1242 Rocket 3.7 22:00:42 10° NNW 22:04:10 38° W 22:04:19 38° W
Cosmos 2208 Rocket 4.4 22:00:53 10° NNW 22:06:08 59° WSW 22:07:25 46° SSW
SPOT 1/Viking Rocket 3.6 22:08:16 56° SSW 22:09:15 71° WSW 22:14:24 10° NNW
SL-19 R/B 4.2 22:05:05 10° NNE 22:10:22 57° ESE 22:10:28 57° ESE
Terra 2.1 22:10:53 53° ENE 22:10:53 53° ENE 22:15:26 10° N
Cosmos 1486 Rocket 3.9 22:13:32 69° ESE 22:13:34 70° ESE 22:18:49 10° NNE
Cosmos 1814 Rocket 4.3 22:09:47 10° N 22:15:00 51° ENE 22:15:12 51° ENE
Cosmos 1802 Rocket 4.5 22:09:41 10° NNW 22:15:37 54° W 22:18:01 34° SSW
Cosmos 1300 3.4 22:11:52 10° N 22:14:45 50° N 22:14:45 50° N
Cosmos 1626 4.2 22:20:50 20° NE 22:20:50 20° NE 22:22:13 10° NNE
Cosmos 2263 Rocket 2.4 22:20:31 51° E 22:20:31 51° E 22:25:16 10° NNE
Cosmos 1725 Rocket 3.9 22:14:01 10° N 22:20:18 89° WSW 22:21:33 60° S
Tiangong 1 4.1 22:19:06 10° NNW 22:20:28 13° N 22:20:28 13° N
Cosmos 220 Rocket 4.3 22:24:40 64° WNW 22:24:40 64° WNW 22:28:55 10° N
deb Chang Zheng 4 4.2 22:21:14 10° NNE 22:24:29 48° NE 22:24:29 48° NE
Cosmos 1726 3.6 22:26:11 10° NNW 22:28:47 34° NW 22:28:47 34° NW
Cosmos 841 Rocket 4.2 22:25:22 10° N 22:30:03 41° ENE 22:30:03 41° ENE
Cosmos 332 Rocket 3.8 22:26:51 10° NNW 22:31:24 77° NNW 22:31:24 77° NNW
Cosmos 1763 Rocket 3.7 22:29:38 10° N 22:34:14 58° NE 22:34:14 58° NE
Cosmos 1500 Rocket 4.3 22:42:58 50° NW 22:42:58 50° NW 22:46:51 10° N
Meteor 2-10 4.4 22:38:19 10° NNW 22:43:50 61° W 22:44:16 59° WSW
Cosmos 1603 3.7 22:39:06 10° NNW 22:44:43 67° WSW 22:44:43 67° WSW
Cosmos 2058 4.1 22:48:12 42° NNW 22:48:12 42° NNW 22:51:07 10° N
Cosmos 1455 4.4 22:46:20 10° N 22:47:56 22° NNE 22:47:56 22° NNE
H-2A R/B 3.6 22:53:13 26° WSW 22:53:54 27° W 22:58:22 10° NW
Cosmos 2151 4.4 22:58:37 36° NW 22:58:37 36° NW 23:01:50 10° N
Cosmos 1503 Rocket 4.4 23:00:00 59° NNE 23:00:00 59° NNE 23:04:11 10° NNE
SL-16 R/B 4.4 22:58:38 10° WNW 23:01:18 14° W 23:02:25 13° WSW
Cosmos 1943 3.3 22:57:20 10° NNW 23:02:27 73° N 23:02:27 73° N
H-2A ROCKET BODY 3.4 23:01:41 40° SW 23:04:14 64° SSE 23:31:27 10° E
CZ-2C R/B 4.4 23:09:06 35° ENE 23:09:06 35° ENE 23:13:54 10° N
Lacrosse 5 2.6 23:05:03 10° NW 23:08:49 51° NW 23:08:49 51° NW
H-2A R/B 3.8 23:14:44 28° WNW 23:14:44 28° WNW 23:17:19 10° NNW
Cosmos 2233 Rocket 4.4 23:10:00 10° NNW 23:15:56 49° W 23:16:13 49° W
VEP-3 4.3 15:20:21 10° SW 23:28:18 58° SSW 23:30:58 51° SSE
CZ-2C R/B 3.4 23:33:35 10° NNE 23:37:21 47° NNE 23:37:21 47° NNE
Cosmos 540 Rocket 4.4 23:37:27 10° NNW 23:40:59 45° NNW 23:40:59 45° NNW
Cosmos 2278 Rocket 4.3 23:45:14 15° ENE 23:45:14 15° ENE 23:46:44 10° NE
Terra 4.4 23:49:46 12° W 23:49:46 12° W 23:50:42 10° WNW
Cosmos 2285 Rocket 4.4 23:47:02 10° NNW 23:52:25 56° WNW 23:52:25 56° WNW
